TimeCDT,TemperatureF,Dew PointF,Humidity,Sea Level PressureIn,VisibilityMPH,Wind Direction,Wind SpeedMPH,Gust SpeedMPH,PrecipitationIn,Events,Conditions,WindDirDegrees,DateUTC
12:53 AM,77.0,70.0,79,30.01,9.0,SW,11.5,-,N/A,,Clear,230,2013-08-26 05:53:00
1:53 AM,75.9,69.1,79,29.98,9.0,SW,8.1,-,N/A,,Mostly Cloudy,230,2013-08-26 06:53:00
2:53 AM,75.9,69.1,79,29.99,9.0,WSW,6.9,-,N/A,,Overcast,240,2013-08-26 07:53:00
3:51 AM,68.0,64.4,88,30.11,2.5,North,11.5,31.1,0.07,Rain-Thunderstorm,Heavy Thunderstorms and Rain,350,2013-08-26 08:51:00
3:53 AM,68.0,64.9,90,30.07,1.8,North,13.8,31.1,0.11,Rain-Thunderstorm,Heavy Thunderstorms and Rain,360,2013-08-26 08:53:00
3:57 AM,66.2,64.4,94,30.09,1.2,NNE,12.7,24.2,0.12,Rain-Thunderstorm,Heavy Thunderstorms and Rain,30,2013-08-26 08:57:00
4:08 AM,66.2,64.4,94,30.10,2.0,WNW,4.6,19.6,0.22,Rain,Heavy Rain,300,2013-08-26 09:08:00
4:10 AM,66.2,64.4,94,30.10,1.8,Variable,3.5,19.6,0.25,Rain-Thunderstorm,Heavy Rain,0,2013-08-26 09:10:00
4:21 AM,66.2,66.2,100,30.07,3.0,ENE,5.8,-,0.32,Rain-Thunderstorm,Heavy Thunderstorms and Rain,70,2013-08-26 09:21:00
4:34 AM,66.2,66.2,100,30.08,3.0,South,4.6,-,0.36,Rain,Heavy Rain,180,2013-08-26 09:34:00
4:45 AM,66.2,64.4,94,30.09,3.0,SW,3.5,-,0.40,Rain-Thunderstorm,Heavy Rain,220,2013-08-26 09:45:00
4:53 AM,66.0,66.0,100,30.06,2.0,ESE,5.8,-,0.49,Rain-Thunderstorm,Heavy Rain,110,2013-08-26 09:53:00
5:17 AM,66.2,-9999,N/A,30.10,4.0,SSW,8.1,-,0.12,Rain-Thunderstorm,Thunderstorms and Rain,200,2013-08-26 10:17:00
5:53 AM,66.0,-9999,N/A,30.04,6.0,SSW,13.8,-,0.19,Rain-Thunderstorm,Thunderstorms and Rain,210,2013-08-26 10:53:00
6:11 AM,66.2,-9999,N/A,30.02,9.0,South,15.0,23.0,0.03,Rain,Light Rain,190,2013-08-26 11:11:00
6:29 AM,66.2,-9999,N/A,30.03,10.0,South,11.5,-,0.04,Rain-Thunderstorm,Light Thunderstorms and Rain,190,2013-08-26 11:29:00
6:53 AM,66.9,-9999,N/A,30.05,6.0,WSW,6.9,-,0.05,Rain,Rain,240,2013-08-26 11:53:00
7:53 AM,66.9,-9999,N/A,30.04,10.0,SSW,4.6,-,0.01,,Clear,210,2013-08-26 12:53:00
8:42 AM,66.2,-9999,N/A,30.06,10.0,SW,8.1,-,N/A,,Scattered Clouds,220,2013-08-26 13:42:00
8:50 AM,66.2,66.2,100,30.07,10.0,SW,10.4,-,N/A,,Mostly Cloudy,220,2013-08-26 13:50:00
8:53 AM,66.9,66.9,100,30.04,10.0,SSW,10.4,-,N/A,,Mostly Cloudy,210,2013-08-26 13:53:00
9:53 AM,68.0,68.0,100,30.04,10.0,WSW,8.1,-,N/A,,Overcast,250,2013-08-26 14:53:00
10:53 AM,75.0,69.1,82,30.04,10.0,West,9.2,-,N/A,,Mostly Cloudy,270,2013-08-26 15:53:00
11:02 AM,75.2,69.8,83,30.06,10.0,West,6.9,-,N/A,,Scattered Clouds,260,2013-08-26 16:02:00
11:53 AM,78.1,69.1,74,30.02,10.0,WSW,11.5,-,N/A,,Partly Cloudy,250,2013-08-26 16:53:00
12:53 PM,80.1,70.0,71,30.01,10.0,WSW,11.5,-,N/A,,Scattered Clouds,250,2013-08-26 17:53:00
1:07 PM,80.6,69.8,70,30.04,10.0,West,9.2,-,N/A,,Mostly Cloudy,260,2013-08-26 18:07:00
1:53 PM,81.0,71.1,72,29.99,10.0,West,8.1,-,N/A,,Overcast,270,2013-08-26 18:53:00
2:53 PM,82.0,71.1,69,29.99,10.0,West,5.8,-,N/A,,Mostly Cloudy,280,2013-08-26 19:53:00
3:53 PM,82.9,72.0,69,29.98,10.0,NW,3.5,-,N/A,,Mostly Cloudy,320,2013-08-26 20:53:00
4:14 PM,82.4,71.6,70,30.01,10.0,SW,4.6,-,N/A,,Mostly Cloudy,230,2013-08-26 21:14:00
4:53 PM,82.0,72.0,71,29.98,10.0,Calm,Calm,-,N/A,,Overcast,0,2013-08-26 21:53:00
5:53 PM,81.0,73.0,77,29.98,10.0,Calm,Calm,-,N/A,,Overcast,0,2013-08-26 22:53:00
6:53 PM,79.0,73.0,82,29.96,10.0,SSE,3.5,-,N/A,,Mostly Cloudy,150,2013-08-26 23:53:00
7:53 PM,75.9,73.9,94,29.97,8.0,Calm,Calm,-,N/A,,Clear,0,2013-08-27 00:53:00
8:53 PM,75.9,73.0,91,29.97,9.0,SE,3.5,-,0.00,,Clear,130,2013-08-27 01:53:00
9:53 PM,75.0,73.9,96,29.96,5.0,SW,3.5,-,0.00,Rain,Light Rain,220,2013-08-27 02:53:00
10:02 PM,75.2,73.4,94,29.99,5.0,West,4.6,-,0.01,Rain-Thunderstorm,Light Rain,280,2013-08-27 03:02:00
10:42 PM,75.2,73.4,94,29.99,2.5,WSW,4.6,-,0.09,Rain-Thunderstorm,Rain,250,2013-08-27 03:42:00
10:51 PM,75.2,71.6,89,30.01,7.0,WNW,8.1,-,0.09,Rain-Thunderstorm,Light Thunderstorms and Rain,290,2013-08-27 03:51:00
10:53 PM,75.0,71.1,87,29.99,8.0,NW,11.5,17.3,0.10,Rain-Thunderstorm,Light Thunderstorms and Rain,310,2013-08-27 03:53:00
11:53 PM,69.1,68.0,96,30.00,8.0,East,4.6,-,0.07,Rain,Light Rain,100,2013-08-27 04:53:00